Date,TemperatureHighF,TemperatureAvgF,TemperatureLowF,DewpointHighF,DewpointAvgF,DewpointLowF,HumidityHigh,HumidityAvg,HumidityLow,PressureMaxIn,PressureMinIn,WindSpeedMaxMPH,WindSpeedAvgMPH,GustSpeedMaxMPH,PrecipitationSumIn
2013-1-1,44.5,40.9,36.4,43.3,37.2,30.5,96,87,78,30.29,30.03,13,2,13,0.00
2013-1-2,36.4,34.0,31.7,30.7,29.1,27.8,86,82,78,30.31,30.27,11,2,11,0.00
2013-1-3,48.6,38.9,22.5,32.8,28.7,20.8,96,69,46,30.47,30.37,15,3,16,0.01
2013-1-4,49.0,41.5,36.2,33.1,31.4,29.6,84,68,50,30.53,30.39,7,0,7,0.00
2013-1-6,56.7,39.0,28.0,29.2,27.0,24.6,88,65,33,30.36,30.32,9,0,10,0.01
2013-1-7,55.0,39.2,22.9,37.7,30.8,20.7,94,74,45,30.35,30.11,11,1,11,0.00
2013-1-8,48.0,46.4,44.9,46.9,42.1,35.3,96,86,66,30.11,29.96,10,2,10,1.08
2013-1-9,55.9,52.8,47.8,54.5,51.7,46.7,97,96,94,30.13,29.94,24,6,29,1.34
2013-1-10,59.6,54.7,48.6,56.9,49.4,44.7,98,83,64,30.00,29.89,22,4,22,0.03
2013-1-11,71.0,58.1,44.7,61.9,50.5,42.0,93,77,53,29.95,29.76,24,3,24,0.00
2013-1-12,68.3,54.5,36.4,67.7,52.2,32.2,98,92,83,29.93,29.62,26,3,26,1.11
2013-1-13,43.4,35.7,29.3,32.0,26.2,20.9,85,69,52,30.30,29.92,21,4,21,0.00
2013-1-14,42.7,32.7,27.1,28.3,23.3,20.5,77,69,51,30.36,30.23,20,4,20,0.00
2013-1-15,37.2,33.6,28.7,29.6,26.2,22.7,93,74,65,30.26,30.17,14,3,14,0.08
2013-1-16,48.9,35.7,26.3,25.6,22.5,18.3,91,61,36,30.31,30.17,12,1,12,0.02
2013-1-17,60.9,42.4,27.4,36.6,30.7,24.9,92,67,37,30.51,30.25,13,1,15,0.00
2013-1-18,61.4,44.3,26.8,37.9,33.0,25.0,95,68,39,30.52,30.27,14,2,15,0.00
2013-1-19,64.3,49.9,38.3,47.5,41.3,35.2,92,73,52,30.27,30.13,21,2,21,0.00
2013-1-20,69.1,48.5,32.6,50.1,41.2,31.3,97,79,43,30.22,30.06,9,1,11,0.00
2013-1-21,57.5,45.2,37.4,41.3,34.2,27.6,96,67,47,30.30,30.12,15,2,15,0.00
2013-1-22,63.9,47.0,32.4,48.2,38.0,26.2,88,72,55,30.33,30.18,11,1,11,0.14
2013-1-23,72.5,57.6,41.3,56.8,50.4,39.4,97,79,56,30.26,30.11,18,3,18,0.00
2013-1-24,76.3,61.0,51.8,61.3,56.4,50.4,97,86,58,30.18,30.01,16,2,16,0.00
2013-1-25,58.9,49.8,45.4,57.4,45.3,39.4,96,85,74,30.20,30.00,13,3,15,0.00
2013-1-26,50.4,47.0,43.9,47.9,44.9,39.6,97,93,78,30.22,30.10,12,2,12,0.01
2013-1-27,74.2,61.4,47.5,63.8,56.7,46.7,98,86,62,30.11,29.91,24,4,24,0.01
2013-1-28,77.2,71.8,67.4,66.7,64.3,62.7,88,78,63,29.98,29.81,24,7,24,0.00
2013-1-29,77.2,66.9,53.8,66.5,59.9,33.6,91,79,43,29.82,29.41,30,7,30,0.22
2013-1-30,56.1,46.6,32.6,39.5,28.9,21.6,80,52,31,30.14,29.66,28,6,29,0.00
2013-1-31,68.2,47.5,29.5,33.0,26.3,18.6,88,51,16,30.33,30.08,24,4,24,0.00
2013-2-1,60.2,43.1,28.9,36.4,28.7,18.9,85,58,39,30.41,30.16,16,3,16,0.00
2013-2-2,66.3,53.3,38.3,46.7,38.8,32.4,86,61,30,30.31,30.14,13,3,14,0.00
2013-2-3,67.8,51.1,31.7,42.1,33.0,28.2,94,57,24,30.31,29.98,12,2,12,0.00
2013-2-4,69.9,59.8,53.3,57.0,48.5,33.1,94,68,41,29.98,29.77,19,4,19,0.04
2013-2-5,63.3,57.8,51.5,59.9,56.1,49.5,98,94,88,30.00,29.86,10,2,10,0.01
2013-2-6,70.9,60.6,51.5,61.5,57.1,50.3,98,89,65,30.00,29.85,17,4,17,0.01
2013-2-7,79.3,63.5,55.6,60.7,54.4,43.8,94,75,31,30.07,29.76,24,6,25,0.00
2013-2-8,62.4,52.2,43.0,46.9,36.3,28.4,78,58,29,30.24,30.07,21,4,21,0.00
2013-2-9,59.7,49.9,46.5,58.3,46.2,40.2,96,87,69,30.13,29.75,19,7,19,0.00
2013-2-10,67.9,58.2,43.2,63.0,40.3,24.0,96,58,20,30.01,29.64,29,4,30,1.07
2013-2-11,53.5,49.6,43.9,41.2,35.7,29.4,84,59,43,30.15,29.99,18,5,18,0.00
2013-2-12,48.5,46.3,42.9,46.3,43.5,39.5,95,90,78,30.03,29.84,16,4,17,0.24
2013-2-13,42.8,41.0,40.6,39.4,37.4,36.5,88,87,85,30.06,30.02,20,6,20,0.00
2013-2-14,68.7,54.8,32.6,44.1,37.8,30.5,95,57,25,30.11,29.99,11,2,11,0.00
2013-2-15,51.2,45.8,31.7,40.0,29.1,17.8,86,54,29,30.38,30.08,21,5,21,0.00
2013-2-16,55.7,41.6,26.7,32.4,27.3,23.0,89,60,33,30.42,30.18,12,1,12,0.00
2013-2-17,69.5,53.8,36.2,46.5,34.3,28.9,81,51,25,30.18,29.90,26,5,26,0.00
2013-2-18,77.0,62.0,51.5,57.5,45.2,30.9,80,57,29,30.10,29.72,28,9,30,0.00
2013-2-19,59.7,52.0,39.5,33.4,28.0,23.5,67,41,25,30.33,30.10,15,5,15,0.00
2013-2-20,51.6,44.1,40.0,39.6,36.1,30.7,85,74,45,30.18,29.80,23,8,23,0.10
2013-2-21,67.7,52.5,42.2,50.1,39.5,29.9,94,65,27,29.92,29.61,23,6,23,0.06
2013-2-22,48.7,40.0,31.7,37.5,27.6,21.5,79,62,44,30.15,29.91,15,4,16,0.00
2013-2-23,54.8,40.5,28.4,32.5,27.8,23.9,85,63,37,30.10,29.93,16,2,16,0.00
2013-2-24,67.7,52.1,32.3,46.2,39.1,28.8,91,63,41,29.94,29.61,18,4,19,0.00
2013-2-25,60.6,51.5,40.2,52.0,39.3,29.5,84,65,36,29.64,29.42,33,8,33,0.01
2013-2-26,58.2,45.7,40.7,35.3,33.2,31.6,75,63,39,29.87,29.64,33,9,35,0.00
2013-2-27,57.0,50.4,37.7,34.9,26.0,19.0,81,40,25,30.23,30.04,22,7,22,0.00
2013-2-28,58.1,46.6,36.0,30.2,27.0,23.3,74,49,29,30.30,30.16,21,5,22,0.00
2013-3-1,55.2,43.4,29.4,33.1,28.7,24.6,86,58,38,30.31,30.19,16,3,16,0.00
2013-3-2,53.4,40.6,30.9,29.1,24.3,19.9,79,55,30,30.45,30.25,18,4,18,0.00
2013-3-3,69.1,52.1,31.1,44.4,31.8,25.3,81,50,27,30.25,29.80,24,5,24,0.00
2013-3-4,86.5,67.4,55.6,50.9,46.2,33.9,73,50,16,29.80,29.57,28,8,28,0.00
2013-3-5,66.5,50.8,41.3,46.9,26.2,16.9,67,41,21,30.37,29.73,32,8,32,0.00
2013-3-6,57.8,46.1,33.7,34.8,23.3,13.1,67,43,19,30.47,30.21,13,2,13,0.00
2013-3-7,68.8,53.6,34.0,40.1,30.1,23.5,78,44,22,30.26,30.09,24,4,24,0.00
2013-3-8,62.2,57.6,52.4,56.3,49.6,34.1,83,75,44,30.18,29.99,17,4,17,0.00
2013-3-9,69.2,63.8,59.9,64.4,59.5,54.5,95,86,80,29.99,29.63,21,6,21,0.15
2013-3-10,64.7,51.4,39.7,62.0,40.5,29.9,95,67,50,30.08,29.67,30,6,30,0.39
2013-3-11,58.7,44.1,29.8,31.8,26.6,18.5,93,57,22,30.14,30.00,18,3,18,0.00
2013-3-18,69.3,63.5,54.2,48.6,44.5,38.3,56,50,44,30.00,29.83,18,6,18,0.00
2013-3-19,66.6,58.3,45.4,43.9,38.7,33.8,77,50,38,30.12,29.95,21,6,21,0.00
2013-3-20,65.7,55.9,44.3,38.1,33.8,25.4,72,46,24,30.30,30.03,16,3,16,0.00
2013-3-21,69.0,59.7,50.5,57.4,43.6,32.8,75,56,41,30.03,29.56,31,8,31,0.00
2013-3-22,65.6,52.9,45.6,61.0,48.8,42.8,95,86,69,29.85,29.55,18,5,18,0.00
2013-3-23,52.5,48.2,45.9,48.1,46.0,44.7,96,92,85,29.83,29.66,23,2,28,0.08
2013-3-24,52.7,45.7,39.3,47.7,30.4,21.5,93,57,35,30.18,29.80,30,8,30,0.01
2013-3-25,54.4,43.1,28.5,26.0,20.5,14.9,77,43,22,30.41,30.18,21,4,21,0.00
2013-3-26,57.4,46.9,29.8,30.7,24.2,19.1,76,43,26,30.51,30.31,11,2,11,0.00
2013-3-27,69.2,53.9,33.7,44.8,33.2,23.1,75,47,29,30.33,30.08,25,5,25,0.00
2013-3-28,69.3,61.3,49.8,57.0,51.3,41.5,84,70,60,30.22,30.07,21,5,21,0.00
2013-3-29,75.2,67.0,60.5,59.4,57.3,55.4,84,72,57,30.17,29.99,16,6,20,0.00
2013-3-30,76.3,65.3,54.9,64.2,59.2,53.5,96,82,64,30.07,29.87,24,4,24,0.81
2013-3-31,73.8,65.5,54.8,62.9,56.1,51.2,94,73,54,29.96,29.77,27,4,27,0.31
2013-4-1,76.5,62.9,46.5,55.4,50.5,45.2,97,68,39,30.06,29.91,10,2,11,0.00
2013-4-2,71.5,64.8,51.2,63.6,57.5,42.4,89,77,66,30.01,29.87,28,6,28,0.01
2013-4-3,54.1,48.1,45.0,47.5,44.6,42.8,94,88,73,30.15,29.94,21,5,21,0.63
2013-4-4,51.5,29.8,0.0,43.3,20.5,0.0,94,46,85,30.20,30.11,10,0,10,0.04
2013-4-5,0.0,0.0,0.0,0.0,0.0,0.0,0,0,100,30.23,30.18,0,0,0,0.00
2013-4-7,72.9,70.8,67.7,62.4,61.4,60.6,79,72,68,29.81,29.72,24,7,24,0.00
2013-4-8,75.1,70.6,65.1,65.1,62.3,57.8,82,75,70,29.74,29.64,24,8,27,0.00
2013-4-9,83.3,74.1,67.1,67.6,64.9,61.0,89,74,52,29.69,29.59,27,8,27,0.00
2013-4-10,72.7,48.3,40.3,68.0,44.3,35.5,93,86,69,29.98,29.66,24,6,24,0.24
2013-4-11,62.6,50.0,39.4,41.2,34.9,30.3,90,59,33,29.97,29.80,16,2,16,0.00
2013-4-12,75.2,57.5,40.8,50.8,44.3,38.4,96,67,30,30.00,29.85,13,2,13,0.01
2013-4-13,77.0,63.2,46.7,55.5,49.5,44.0,93,64,35,30.00,29.76,18,4,18,0.00
2013-4-14,79.5,67.7,54.7,65.3,57.6,48.8,86,71,58,29.76,29.52,22,4,22,0.00
2013-4-15,85.4,75.7,67.3,69.8,66.5,64.2,92,74,54,29.72,29.58,26,7,26,0.00
2013-4-16,84.6,77.2,71.3,70.0,67.2,64.0,86,72,58,29.86,29.72,20,7,23,0.00
2013-4-17,83.3,76.9,73.1,70.8,69.1,67.3,91,77,63,29.85,29.59,25,9,25,0.00
2013-4-18,75.3,55.5,45.2,70.9,46.9,33.4,93,74,51,30.14,29.52,31,7,31,1.21
2013-4-19,62.9,49.6,37.5,39.7,32.0,25.4,85,55,24,30.28,30.13,20,3,22,0.00
2013-4-20,69.9,57.0,41.6,43.6,37.1,33.5,85,50,29,30.21,30.01,21,4,21,0.00
2013-4-21,68.7,58.1,45.1,52.1,47.1,39.3,92,68,51,30.21,30.05,16,3,17,0.00
2013-4-22,75.7,62.2,49.4,60.6,52.9,45.5,90,72,58,30.10,29.83,20,3,20,0.00
2013-4-23,67.1,55.3,42.4,62.1,50.3,38.1,92,84,73,30.17,29.78,21,6,21,0.01
2013-4-24,59.4,48.8,39.5,44.4,37.5,33.3,90,67,41,30.31,30.16,17,4,18,0.09
2013-4-25,71.3,60.1,48.0,49.7,43.4,36.6,78,55,35,30.33,30.14,14,3,14,0.00
2013-4-26,77.5,66.4,58.4,67.7,57.2,45.2,86,73,54,30.16,29.94,16,5,16,0.00
2013-4-27,74.3,68.4,57.1,65.7,60.2,54.6,93,76,56,30.08,29.95,15,4,15,0.00
2013-4-28,79.8,64.7,49.6,67.8,58.9,48.0,97,82,62,30.02,29.83,12,2,13,0.00
2013-4-29,83.8,70.3,56.5,67.1,61.3,55.1,97,76,43,29.89,29.77,20,3,20,0.00
2013-4-30,79.6,72.6,57.5,66.0,63.5,55.2,94,74,56,29.81,29.71,18,5,20,0.00
2013-5-1,81.9,72.1,63.7,68.7,64.0,60.9,93,77,51,29.93,29.76,15,5,16,0.00
2013-5-2,67.5,52.7,43.3,61.6,46.6,36.1,90,80,71,30.32,29.91,26,7,30,0.03
2013-5-3,66.9,52.4,39.9,38.6,32.5,25.5,86,52,22,30.29,30.01,31,6,31,0.00
2013-5-4,73.3,56.0,37.2,45.0,35.0,22.2,94,55,17,30.01,29.87,30,4,30,0.00
2013-5-5,66.8,54.8,46.0,48.0,42.9,38.2,89,65,48,30.14,30.01,18,3,18,0.00
2013-5-6,78.3,61.6,44.1,56.5,50.6,42.4,96,71,37,30.11,29.96,12,1,12,0.00
2013-5-7,81.3,68.6,52.5,58.2,55.1,50.3,94,65,38,30.05,29.90,13,2,13,0.00
2013-5-8,84.7,72.5,57.7,61.0,57.2,53.2,86,61,38,29.97,29.83,21,4,21,0.00
2013-5-9,72.2,68.0,66.1,67.4,63.7,58.5,97,87,65,29.94,29.82,14,3,17,0.35
2013-5-10,78.7,70.0,64.3,67.3,64.1,59.2,97,83,60,30.01,29.84,13,2,13,0.00
2013-5-11,78.3,68.6,57.9,59.5,54.1,47.5,87,63,36,30.14,29.98,21,4,21,0.00
2013-5-12,75.5,64.5,53.6,54.5,45.1,34.5,84,53,24,30.25,30.11,17,3,17,0.00
2013-5-13,86.1,69.3,49.0,53.9,48.8,44.2,91,53,25,30.22,30.08,15,3,17,0.00
2013-5-14,85.2,74.8,61.1,62.1,57.1,49.1,83,56,33,30.13,29.94,20,5,20,0.00
2013-5-15,77.1,70.8,62.4,68.5,66.2,60.8,95,86,70,30.01,29.73,30,7,30,1.54
2013-5-16,79.8,67.3,0.0,71.7,63.3,-1.3,96,82,74,29.82,29.71,21,3,21,0.18
2013-5-17,88.8,79.2,71.2,75.6,72.2,69.5,97,80,58,29.82,29.74,18,4,18,0.00
2013-5-18,90.9,81.2,72.1,74.3,71.2,67.2,87,72,55,29.86,29.72,23,6,23,0.00
2013-5-19,86.9,77.5,71.2,71.3,68.5,65.3,85,74,59,29.80,29.63,27,7,27,0.00
2013-5-20,89.4,80.6,74.2,73.5,70.4,68.6,83,72,58,29.78,29.60,28,7,28,0.00
2013-5-21,83.3,72.4,62.4,72.9,66.8,60.0,95,83,66,29.84,29.62,26,5,26,1.49
2013-5-22,82.2,68.7,53.7,65.9,60.4,52.5,98,77,41,29.92,29.81,9,1,9,0.00
2013-5-23,84.8,76.4,68.5,74.1,70.7,64.6,96,83,68,30.03,29.85,19,3,19,0.00
2013-5-24,83.8,77.1,68.0,75.2,71.3,64.4,94,83,68,30.17,29.96,19,3,19,0.17
2013-5-25,82.5,71.9,66.2,72.9,68.2,62.6,96,89,68,30.14,30.00,30,2,30,0.28
2013-5-26,86.0,77.4,70.0,73.1,70.7,67.8,96,81,60,30.05,29.89,19,4,20,0.06
2013-5-27,86.0,78.5,72.2,71.2,69.3,67.7,87,74,58,29.95,29.75,24,6,24,0.00
2013-5-28,85.3,78.6,71.1,69.9,68.0,65.5,89,71,53,29.86,29.73,25,7,27,0.00
2013-5-29,81.8,75.4,69.5,73.0,70.2,65.1,93,84,73,29.78,29.67,31,7,31,0.39
2013-5-30,88.0,79.7,73.9,74.9,72.2,69.5,88,78,63,29.76,29.65,25,7,25,0.01
2013-5-31,90.0,82.1,77.0,75.0,73.0,71.4,85,75,58,29.79,29.62,25,7,25,0.00
2013-6-1,87.5,79.3,75.0,76.3,72.3,68.4,93,79,65,29.91,29.67,26,6,26,0.04
2013-6-2,83.6,74.9,64.9,68.1,59.2,50.5,86,61,33,30.04,29.90,16,3,16,0.00
2013-6-3,85.7,79.2,74.7,66.3,64.6,58.5,73,62,46,29.94,29.80,7,1,7,0.00
2013-6-4,89.5,78.0,69.3,72.1,67.3,63.2,82,71,49,29.98,29.75,19,5,19,0.00
2013-6-5,87.7,78.6,71.0,73.6,70.9,67.9,91,78,57,29.90,29.72,12,3,12,0.00
2013-6-6,77.5,71.7,67.3,72.3,67.2,65.5,95,86,70,29.88,29.77,14,4,14,0.57
2013-6-7,81.2,73.6,60.6,63.9,59.7,54.5,95,64,41,29.98,29.85,13,3,14,0.01
2013-6-8,85.2,73.7,58.1,66.6,62.2,56.6,97,70,48,29.91,29.76,15,3,15,0.00
2013-6-9,86.3,76.8,67.6,71.8,68.2,63.4,96,76,55,29.91,29.81,27,2,27,0.67
2013-6-10,97.1,81.0,66.7,73.6,68.2,63.3,97,70,34,29.92,29.85,16,3,17,0.00
2013-6-11,92.3,85.6,74.8,74.3,72.0,70.2,89,65,51,29.98,29.87,14,5,15,0.00
2013-6-12,93.2,86.3,75.5,75.2,71.8,69.5,89,63,47,30.02,29.88,17,4,18,0.00
2013-6-13,97.5,87.0,72.3,75.4,71.7,57.3,90,62,38,30.01,29.84,13,2,14,0.00
2013-6-14,94.5,84.5,71.5,77.5,73.2,69.7,96,71,47,29.94,29.83,10,1,10,0.00
2013-6-15,90.9,81.3,70.6,78.1,73.2,67.8,95,77,60,29.96,29.83,19,2,19,0.12
2013-6-16,93.5,83.7,72.4,76.3,72.2,68.6,96,71,47,29.97,29.82,13,3,13,0.00
2013-6-17,91.3,80.2,68.8,78.1,73.1,66.2,95,80,60,30.00,29.81,35,2,35,0.66
2013-6-18,80.5,75.9,71.8,74.5,70.4,68.0,93,83,71,29.97,29.83,17,2,17,0.01
2013-6-19,89.1,79.5,68.4,76.8,72.4,66.9,97,80,60,29.96,29.82,12,2,12,0.00
2013-6-20,93.7,84.6,75.7,74.3,71.6,67.8,90,67,43,30.00,29.88,18,4,18,0.00
2013-6-21,94.7,85.0,75.3,74.3,71.3,67.3,85,65,42,30.03,29.91,18,4,18,0.00
2013-6-22,94.0,84.3,75.5,74.4,70.9,68.1,84,66,44,30.00,29.83,21,5,21,0.00
2013-6-23,94.3,84.7,75.7,74.6,70.5,65.9,85,64,42,29.95,29.83,18,5,18,0.00
2013-6-24,94.9,85.1,76.4,73.3,70.6,67.6,83,63,43,29.99,29.84,17,4,20,0.00
2013-6-25,96.2,86.6,77.2,74.1,70.2,65.9,82,60,40,29.95,29.77,22,6,25,0.00
2013-6-26,96.9,86.8,76.8,74.7,71.0,66.0,83,61,45,29.92,29.79,20,6,20,0.00
2013-6-27,98.6,85.3,76.5,77.1,72.7,68.5,87,67,46,29.97,29.80,15,2,15,0.00
2013-6-28,101.4,85.5,72.2,74.0,69.7,65.0,90,63,34,29.90,29.76,11,2,15,0.00
2013-6-29,96.5,83.0,69.8,72.3,65.7,59.3,90,60,32,29.85,29.75,20,3,20,0.00
2013-6-30,89.0,79.3,68.7,67.1,61.2,54.9,90,57,34,29.90,29.76,19,3,19,0.00
2013-7-1,85.8,75.6,64.8,63.5,60.0,56.4,81,60,41,29.99,29.89,16,3,16,0.00
2013-7-2,87.0,74.6,61.1,61.2,56.4,49.2,84,57,29,30.05,29.96,14,2,14,0.00
2013-7-3,90.0,74.1,58.4,65.8,57.5,49.0,94,62,26,30.03,29.90,10,1,10,0.00
2013-7-4,91.5,81.2,71.0,67.6,63.0,57.3,77,56,32,29.97,29.85,17,4,18,0.00
2013-7-5,93.0,81.1,65.8,69.5,64.8,61.0,90,61,35,29.97,29.81,14,2,16,0.00
2013-7-6,93.0,83.3,71.3,71.3,65.6,61.5,77,56,37,29.91,29.81,11,3,11,0.00
2013-7-7,93.9,84.9,73.9,74.6,69.2,64.8,77,61,41,29.96,29.86,13,3,13,0.00
2013-7-8,95.0,85.1,75.0,74.7,71.5,68.2,87,65,45,30.04,29.93,17,3,17,0.00
2013-7-9,99.8,87.2,77.7,73.4,68.0,61.3,81,56,29,30.08,29.91,16,4,16,0.00
2013-7-10,101.0,91.2,81.5,74.8,70.1,65.8,74,52,33,30.01,29.84,15,3,16,0.00
2013-7-11,99.3,86.1,76.2,75.2,71.5,68.1,83,63,39,29.92,29.83,27,2,27,0.00
2013-7-12,97.5,85.3,72.0,75.0,71.9,68.6,95,67,40,29.93,29.82,10,2,10,0.00
2013-7-13,96.8,86.4,77.8,72.6,68.4,61.5,77,56,40,29.96,29.82,18,4,18,0.00
2013-7-14,80.7,72.5,69.0,69.7,66.5,60.5,94,83,51,29.98,29.85,12,1,12,0.24
2013-7-15,75.2,71.1,67.1,71.7,68.4,65.4,96,91,84,30.07,29.92,10,1,12,0.14
2013-7-16,88.6,76.7,70.7,74.4,71.6,68.8,96,85,58,30.19,30.03,21,2,21,0.33
2013-7-17,88.3,78.3,70.3,75.8,72.0,69.4,98,83,58,30.19,30.09,15,2,15,0.16
2013-7-18,92.8,81.3,68.9,75.0,71.3,67.5,97,74,49,30.15,29.95,14,1,14,0.00
2013-7-19,92.9,79.6,74.1,76.3,72.8,70.1,94,81,49,30.00,29.88,15,2,15,0.19
2013-7-20,93.0,80.6,70.9,77.7,72.3,66.0,96,78,45,29.94,29.80,19,2,19,0.00
2013-7-21,95.1,83.9,72.2,77.3,72.6,69.8,95,71,46,29.89,29.79,18,3,18,0.00
2013-7-22,96.9,86.6,77.2,75.8,73.2,69.6,90,67,43,29.92,29.80,19,5,19,0.00
2013-7-23,97.2,88.3,78.8,78.0,73.0,64.7,85,62,39,29.92,29.75,18,5,20,0.00
2013-7-24,95.8,83.5,74.9,74.4,70.6,66.3,82,66,43,30.01,29.80,23,4,24,0.00
2013-7-25,93.2,82.6,70.7,76.0,72.3,68.2,94,72,53,30.01,29.92,12,2,12,0.00
2013-7-26,94.2,83.1,76.2,79.8,73.1,71.2,94,73,49,29.97,29.79,21,3,21,0.10
2013-7-27,87.5,78.6,71.6,71.9,68.2,64.4,89,72,49,29.98,29.86,16,4,16,0.00
2013-7-28,90.3,79.8,66.8,72.9,69.2,64.0,93,71,51,29.96,29.82,12,3,14,0.00
2013-7-29,95.0,85.2,76.6,75.5,71.8,64.4,88,66,39,29.96,29.85,16,4,17,0.00
2013-7-30,98.3,87.7,78.4,74.0,70.0,62.3,81,58,42,30.04,29.89,22,5,22,0.00
2013-7-31,101.5,90.3,78.4,77.1,72.3,67.7,76,57,38,30.01,29.85,14,2,14,0.00
2013-8-1,100.8,88.0,76.2,75.7,72.6,68.4,89,63,36,29.95,29.82,13,2,13,0.00
2013-8-2,101.2,89.7,76.2,73.7,70.4,66.1,83,56,35,29.90,29.80,16,3,16,0.00
2013-8-3,98.6,88.8,79.9,73.6,70.7,66.7,72,56,37,29.96,29.86,15,3,15,0.00
2013-8-4,98.2,88.4,75.9,74.9,71.3,66.6,86,59,37,30.02,29.86,13,2,14,0.00
2013-8-5,101.6,90.3,81.1,72.8,68.7,63.3,74,51,32,29.95,29.78,15,4,15,0.00
2013-8-6,102.5,90.3,78.5,72.4,68.8,62.7,74,52,31,29.86,29.73,17,4,17,0.00
2013-8-7,103.5,91.2,79.9,73.8,69.9,64.6,76,52,33,29.84,29.70,17,5,17,0.00
2013-8-8,100.9,89.6,79.0,74.0,70.4,65.7,81,55,35,29.83,29.71,17,3,17,0.00
2013-8-9,102.8,88.9,76.3,73.7,67.1,56.0,76,52,25,29.90,29.77,18,2,18,0.00
2013-8-10,98.5,85.5,72.9,76.4,71.9,68.2,94,66,40,30.00,29.89,12,2,13,0.00
2013-8-11,98.5,86.2,73.1,75.2,71.3,63.9,89,63,35,30.02,29.89,15,2,16,0.00
2013-8-12,98.7,88.1,75.7,74.4,70.8,67.3,85,59,37,30.00,29.86,12,3,13,0.00
2013-8-13,101.0,84.0,73.5,75.3,71.4,68.2,95,68,39,29.95,29.82,48,2,48,0.69
2013-8-14,86.7,81.5,75.0,76.4,72.7,68.8,95,75,64,29.98,29.89,15,3,15,0.00
2013-8-15,86.5,78.0,69.7,69.2,65.5,60.8,82,66,50,30.03,29.91,12,2,12,0.00
2013-8-16,86.8,76.7,67.2,68.4,64.7,60.7,94,68,47,30.04,29.91,22,2,22,0.04
2013-8-17,88.4,75.6,60.8,62.7,60.5,58.3,93,62,39,30.07,29.93,18,2,18,0.00
2013-8-18,89.4,75.9,62.2,68.3,63.3,59.4,94,68,37,30.07,29.94,11,1,11,0.00
2013-8-19,93.3,81.7,67.7,70.3,64.6,60.1,85,59,34,30.03,29.88,12,2,13,0.00
2013-8-20,94.2,82.3,68.1,67.5,63.6,60.0,83,56,33,30.01,29.89,9,1,9,0.00
2013-8-21,93.2,82.0,68.5,72.3,67.0,61.8,87,62,42,30.05,29.93,11,1,12,0.00
2013-8-22,98.2,86.7,75.6,73.7,69.5,65.6,81,58,39,30.04,29.87,11,1,11,0.00
2013-8-23,97.5,87.4,76.5,75.3,70.2,66.1,82,58,37,29.99,29.84,25,2,25,0.00
2013-8-24,97.7,88.3,77.6,74.0,69.9,60.8,82,56,37,30.01,29.90,19,2,19,0.00
2013-8-25,95.1,86.9,77.7,73.4,69.3,65.7,80,57,40,30.10,29.99,15,3,17,0.00
2013-8-26,94.7,81.3,0.0,72.3,64.4,-3.7,84,53,36,30.13,29.99,14,4,14,0.00
2013-8-27,93.8,83.9,75.3,72.4,69.9,65.4,87,64,41,30.08,29.96,16,3,16,0.00
2013-8-28,97.5,80.3,68.8,72.0,68.6,65.3,94,71,36,30.05,29.93,11,0,11,0.00
2013-8-29,102.0,84.9,69.8,73.2,68.1,63.0,93,62,30,30.03,29.89,10,1,10,0.00
2013-8-30,94.7,77.6,70.8,71.8,68.4,65.9,87,74,44,29.95,29.81,6,0,6,0.00
2013-8-31,101.8,87.1,73.8,73.7,68.7,63.1,82,58,29,29.86,29.73,10,1,10,0.00
2013-9-1,101.4,89.6,77.5,73.0,69.2,65.9,73,53,33,29.83,29.70,17,2,17,0.00
2013-9-2,94.3,83.0,76.8,74.8,72.3,68.6,89,71,46,29.96,29.79,15,1,15,0.05
2013-9-3,100.7,84.8,72.9,73.4,67.6,61.2,87,59,31,29.95,29.82,10,1,11,0.00
2013-9-4,97.9,85.5,72.0,75.2,68.9,60.4,88,60,32,30.00,29.88,14,2,14,0.00
2013-9-5,94.7,81.5,73.1,73.2,68.2,62.8,87,66,35,30.06,29.94,9,1,9,0.00
2013-9-6,99.0,84.8,69.9,73.0,67.1,0.0,85,58,33,30.04,29.89,11,2,11,0.00
2013-9-7,96.7,84.9,72.8,73.1,68.1,63.2,86,59,34,30.00,29.85,15,2,15,0.00
2013-9-8,93.7,80.8,67.7,73.6,67.8,62.7,93,67,38,29.94,29.83,14,2,17,0.00
2013-9-9,93.6,83.1,69.3,71.8,67.6,63.8,90,62,41,29.96,29.86,17,3,17,0.00
2013-9-10,92.0,81.8,72.2,74.0,67.3,57.8,90,64,34,30.06,29.94,16,3,16,0.00
2013-9-11,93.0,82.8,67.3,73.0,68.9,63.6,90,64,45,30.09,29.95,18,2,18,0.00
2013-9-12,95.1,83.2,70.6,72.2,68.9,65.1,92,65,40,30.03,29.87,9,1,9,0.00
2013-9-13,94.5,83.0,72.0,74.3,70.0,65.4,92,67,42,29.93,29.78,18,3,18,0.02
2013-9-14,91.0,81.8,74.1,69.7,64.0,58.9,70,56,42,29.94,29.83,16,4,17,0.00
2013-9-15,91.8,84.2,72.6,71.0,68.3,61.0,69,59,47,29.99,29.91,10,1,10,0.00
2013-9-16,94.3,83.5,70.3,75.5,68.0,63.1,86,62,38,30.05,29.91,9,1,11,0.00
2013-9-17,91.7,83.8,73.3,71.4,68.6,65.0,84,61,42,30.03,29.89,11,1,11,0.00
2013-9-18,95.5,84.0,72.9,72.4,67.9,63.2,84,60,35,29.98,29.82,16,2,16,0.00
2013-9-19,89.9,81.2,72.8,73.9,71.2,65.4,95,73,56,29.95,29.82,15,1,15,0.32
2013-9-20,74.4,72.3,68.8,71.8,69.9,63.8,97,92,83,29.90,29.80,19,3,19,1.75
2013-9-21,82.0,69.9,56.7,64.0,54.2,44.7,90,62,30,29.95,29.82,19,3,19,0.00
2013-9-22,81.7,67.1,52.6,59.1,54.4,50.9,96,68,35,29.92,29.77,14,2,14,0.00
2013-9-23,84.0,71.2,61.2,61.1,57.0,54.2,89,63,37,29.84,29.71,15,2,15,0.00
2013-9-24,95.2,75.9,60.6,69.0,58.7,46.9,95,63,21,29.89,29.79,16,2,16,0.00
2013-9-25,91.7,66.8,54.1,60.4,55.9,49.8,94,72,24,29.87,29.73,7,0,7,0.00
2013-9-26,92.0,71.6,59.6,63.7,58.2,53.9,86,65,35,29.85,29.76,14,1,15,0.00
2013-9-27,87.2,75.5,60.8,73.0,66.6,58.5,94,75,62,29.91,29.80,18,4,18,0.00
2013-9-28,86.7,75.4,65.7,75.6,70.5,63.5,95,85,69,30.00,29.84,21,4,21,2.36
2013-9-29,83.0,70.0,61.3,63.7,58.9,50.5,94,71,35,30.02,29.87,14,1,14,0.00
2013-9-30,85.7,71.3,56.0,65.0,58.5,52.9,97,69,36,29.89,29.77,11,1,11,0.00
2013-10-1,88.8,81.9,74.3,72.5,69.5,64.4,87,67,46,29.91,29.81,12,3,14,0.00
2013-10-2,85.6,78.2,72.3,73.4,70.8,68.6,94,79,61,29.95,29.82,18,3,18,0.00
2013-10-3,89.9,79.8,72.3,74.6,71.1,68.8,92,76,52,29.90,29.77,18,3,18,0.00
2013-10-5,61.8,58.3,54.4,55.0,50.5,45.3,92,76,62,30.03,29.97,19,5,20,0.01
2013-10-6,74.6,63.0,47.4,51.2,42.1,31.6,96,53,21,30.11,30.00,17,3,17,0.01
2013-10-7,79.5,58.2,42.1,54.4,45.4,38.8,96,70,25,30.14,30.03,11,1,11,0.00
2013-10-8,78.0,62.6,45.6,56.3,50.5,44.0,95,69,37,30.10,29.97,11,2,11,0.00
2013-10-9,81.4,67.6,52.8,59.6,55.6,49.7,91,67,41,30.06,29.95,13,2,13,0.00
2013-10-10,80.6,70.9,55.0,63.6,59.6,52.4,94,69,49,30.04,29.86,18,2,22,0.00
2013-10-11,84.3,74.6,65.4,71.4,67.4,61.2,94,79,65,29.92,29.78,19,3,19,0.00
2013-10-12,88.8,77.6,69.4,76.6,71.3,65.7,94,81,62,30.04,29.84,20,3,20,0.00
2013-10-13,75.0,70.4,65.9,69.4,67.3,63.7,97,90,81,30.17,30.01,14,1,14,0.01
2013-10-14,72.3,70.1,67.9,71.1,68.8,66.3,97,96,92,30.11,29.89,13,2,13,0.91
2013-10-15,79.2,66.9,53.2,72.9,64.6,51.5,96,92,78,30.04,29.87,16,3,16,0.67
2013-10-16,64.3,56.2,51.9,55.0,51.7,48.6,96,86,61,30.08,29.98,14,2,15,0.20
2013-10-17,70.8,56.2,43.7,53.5,47.5,42.0,96,75,40,30.12,29.97,9,0,9,0.00
2013-10-18,69.3,58.4,47.0,57.6,51.9,45.7,97,81,54,30.07,29.88,20,1,20,0.01
2013-10-19,64.5,51.5,42.1,48.4,41.2,37.2,94,71,40,30.20,30.06,20,3,20,0.00
2013-10-20,71.0,54.4,37.0,48.7,43.4,35.7,97,71,36,30.07,29.86,16,2,16,0.00
2013-10-21,74.2,59.2,49.2,62.9,53.4,46.1,93,81,65,30.09,29.89,17,2,17,0.00
2013-10-22,76.3,57.1,37.4,51.0,44.2,35.8,96,68,30,30.15,30.00,15,1,15,0.00
2013-10-23,82.5,61.4,44.0,56.8,49.2,42.4,96,70,28,30.11,30.00,8,1,8,0.00
2013-10-24,77.3,68.1,46.6,57.8,51.8,44.5,96,57,45,30.26,30.11,13,4,13,0.00
2013-10-25,66.1,57.9,53.1,49.3,45.2,40.2,77,63,51,30.39,30.22,19,4,19,0.00
2013-10-26,75.5,61.6,51.7,64.1,55.1,47.5,95,80,67,30.23,29.99,21,3,21,1.04
2013-10-27,69.3,62.1,57.8,59.7,58.2,55.1,96,88,69,30.11,29.98,7,0,7,0.00
2013-10-28,76.5,64.1,50.3,68.0,60.7,49.0,98,89,74,30.09,29.98,14,2,14,0.00
2013-10-29,74.8,71.5,68.1,69.7,67.8,65.6,94,88,84,30.06,29.96,15,4,15,0.00
2013-10-30,71.9,68.2,64.8,68.6,65.9,62.9,96,92,87,29.99,29.77,26,5,26,0.15
2013-10-31,75.7,66.7,48.6,68.6,56.2,41.3,98,74,32,29.85,29.65,24,4,28,0.01
2013-11-1,76.0,59.2,43.0,54.3,47.8,41.9,97,70,41,30.06,29.80,17,2,17,0.00
2013-11-2,67.2,56.4,41.8,43.7,40.2,33.7,93,58,30,30.28,30.06,16,2,16,0.00
2013-11-3,65.1,51.6,36.5,46.7,41.1,35.2,96,71,43,30.20,29.99,17,3,17,0.00
2013-11-4,59.8,56.8,52.0,59.0,52.9,46.3,97,87,66,30.09,29.99,15,3,15,0.70
2013-11-5,68.8,64.2,59.8,67.3,63.0,58.7,97,96,94,30.04,29.90,17,3,17,0.25
2013-11-6,69.6,55.1,41.4,68.0,49.9,37.8,95,83,63,30.35,29.93,20,4,21,0.11
2013-11-7,63.3,48.5,33.2,45.3,38.6,31.9,96,73,41,30.51,30.35,8,0,8,0.00
2013-11-8,65.2,58.4,37.5,47.7,43.1,36.5,97,58,40,30.35,30.12,14,2,14,0.00
2013-11-9,67.5,58.9,53.4,52.8,48.8,45.3,81,69,58,30.18,30.10,18,2,18,0.00
2013-11-10,67.0,59.8,50.0,49.6,47.0,39.7,89,64,42,30.33,30.23,6,0,6,0.00
2013-11-11,72.8,59.0,41.4,54.8,50.5,40.3,97,76,50,30.28,30.15,9,0,9,0.00
2013-11-12,59.9,47.3,34.2,56.4,34.1,19.9,97,63,33,30.69,30.26,21,4,22,0.00
2013-11-13,49.8,38.4,26.5,30.3,25.7,16.3,85,62,40,30.69,30.37,10,0,10,0.00
2013-11-14,58.6,48.5,0.0,45.9,34.6,0.0,92,60,33,30.37,30.01,16,2,16,0.00
2013-11-15,69.3,59.0,52.9,58.0,52.2,45.7,91,79,63,30.02,29.82,14,2,14,0.00
2013-11-16,75.0,67.0,59.9,66.7,62.4,57.6,94,86,73,29.85,29.65,22,6,26,0.00
2013-11-17,87.4,75.4,60.9,69.6,53.6,41.1,86,48,31,29.98,29.72,20,2,20,0.00
2013-11-18,69.3,61.7,52.2,40.9,34.5,28.6,57,37,22,30.16,29.98,14,4,14,0.00
2013-11-19,66.3,60.0,55.4,41.9,36.4,30.9,54,42,28,30.17,30.01,18,5,18,0.00
2013-11-20,63.7,58.3,44.4,52.3,44.6,33.9,78,61,49,30.03,29.88,16,3,16,0.00
2013-11-21,71.5,63.2,43.8,68.4,60.5,41.1,96,91,78,30.19,29.93,25,2,29,0.05
2013-11-22,43.8,36.9,34.7,40.9,34.7,32.7,94,92,88,30.44,30.17,26,5,29,0.21
2013-11-23,42.4,37.8,35.3,38.2,33.9,27.3,95,86,66,30.54,30.42,18,3,18,0.03
2013-11-24,35.6,33.7,31.4,27.6,25.5,22.6,79,72,63,30.60,30.36,16,4,16,0.00
2013-11-25,37.2,34.8,32.0,34.9,32.6,26.0,95,91,71,30.37,30.15,12,2,16,0.77
2013-11-26,51.4,42.2,35.3,36.7,32.1,23.1,94,69,46,30.38,30.13,25,6,25,0.01
2013-11-27,46.0,34.6,24.1,24.1,20.9,17.0,91,60,33,30.48,30.35,10,2,13,0.00
2013-11-28,51.1,34.1,22.2,31.7,25.4,20.0,94,74,37,30.47,30.36,10,1,10,0.00
2013-11-29,56.4,39.2,23.4,40.2,31.6,21.7,95,76,46,30.54,30.36,13,1,13,0.00
2013-11-30,64.8,49.4,32.8,52.6,42.5,30.1,95,79,55,30.36,30.14,17,3,18,0.00
2013-12-1,69.8,57.3,44.3,57.9,52.7,42.3,97,85,65,30.17,29.87,18,2,18,0.00
2013-12-2,69.5,51.8,37.5,52.6,45.9,36.2,97,82,51,29.87,29.65,9,0,9,0.01
2013-12-3,73.9,51.9,35.7,51.7,41.4,34.4,98,73,28,29.67,29.50,14,1,14,0.01
2013-12-4,78.3,62.7,46.8,61.1,52.6,43.0,91,72,46,29.72,29.57,14,1,14,0.00
2013-12-5,60.3,34.6,0.0,45.5,25.8,0.0,93,70,58,30.19,30.05,18,4,19,0.13
2013-12-6,32.2,27.6,23.3,30.4,24.8,19.1,93,89,84,30.53,30.11,0,0,0,0.57
2013-12-7,25.7,23.1,19.9,23.7,20.2,15.9,93,88,83,30.56,30.28,0,0,0,0.00
2013-12-8,32.8,29.9,25.5,31.0,28.2,23.4,95,93,91,30.28,30.06,0,0,0,0.00
2013-12-9,32.0,31.2,27.8,30.3,28.2,22.3,95,89,77,30.43,30.17,0,0,0,0.00
2013-12-10,38.4,27.5,19.9,27.0,21.7,15.6,93,79,59,30.54,30.36,7,0,7,0.11
2013-12-11,42.8,32.7,21.1,34.0,27.8,19.1,94,82,63,30.60,30.34,11,1,11,0.09
2013-12-12,49.4,35.9,23.1,34.6,29.0,20.8,93,77,53,30.62,30.30,7,0,7,0.00
2013-12-13,46.1,41.8,38.7,45.3,38.4,32.6,97,88,73,30.31,29.80,12,2,12,0.09
2013-12-14,46.6,43.1,35.6,45.8,39.3,27.8,97,87,67,30.32,29.78,23,4,23,0.00
2013-12-15,60.4,46.6,24.9,35.3,32.5,23.4,95,62,34,30.36,30.22,10,1,0,0.01
2013-12-16,65.8,48.7,33.0,39.2,35.4,30.4,90,64,34,30.25,30.14,14,1,0,0.00
2013-12-17,67.5,45.1,30.5,42.1,36.1,27.9,93,73,37,30.28,30.19,6,0,0,0.00
2013-12-18,69.0,50.9,29.9,46.6,39.6,28.4,96,69,37,30.25,30.00,20,3,0,0.00
2013-12-19,71.8,61.4,50.6,62.8,55.4,46.5,94,81,66,30.00,29.72,31,4,0,0.00
2013-12-20,69.2,57.5,35.8,63.8,53.5,34.1,95,87,73,29.83,29.73,18,2,0,0.00
2013-12-21,53.0,43.0,35.0,51.9,41.8,33.2,97,96,93,29.77,29.52,12,1,0,1.74
2013-12-22,46.1,37.1,30.0,45.3,31.0,25.4,97,79,62,30.40,29.77,17,3,0,0.01
2013-12-23,44.9,32.5,22.3,31.8,26.5,20.0,93,79,52,30.57,30.38,11,0,0,0.00
2013-12-24,50.2,36.5,22.7,36.8,29.4,20.6,94,77,54,30.57,30.27,13,1,0,0.00
2013-12-25,58.2,43.1,31.8,43.3,34.9,27.1,90,74,53,30.41,30.27,13,1,0,0.00
2013-12-26,51.8,40.7,29.6,38.2,34.2,27.8,94,79,57,30.45,30.33,8,0,0,0.00
2013-12-27,56.0,35.1,27.6,39.3,32.2,25.8,96,90,52,30.46,30.32,1,0,0,0.01
2013-12-28,59.4,45.5,30.1,42.9,37.3,28.5,96,75,49,30.32,29.97,14,1,0,0.00
2013-12-29,51.8,38.7,31.8,43.2,32.4,23.3,93,78,68,30.29,29.93,20,3,0,0.00
2013-12-30,43.7,34.0,26.0,23.7,21.5,18.6,86,61,43,30.42,30.25,13,2,0,0.00
2013-12-31,52.1,37.6,22.6,30.1,25.2,19.3,91,64,37,30.45,30.21,10,1,0,0.00
2014-1-1,66.5,47.1,31.5,50.7,36.8,26.3,88,69,45,30.21,29.86,28,5,0,0.00
2014-1-2,42.1,31.5,23.1,26.5,19.6,16.8,85,63,40,30.48,30.18,25,5,0,0.00